This demonstration page uses our WeatherBlox Daily Observations layout. Learn more.

Left ArrowRight Arrow

34.74481, -87.66753

Hourly Observations for February 6, 2018

Temp ( °F °C ) Dew Point ( °F °C ) Humidity (%) Winds ( mph kmh ) Pressure ( in mb ) Visibility ( mi km ) Precip ( " mm )
12:53 am 00:53 Cloudy 41 5 32 0 70 70 SSE 3 6 30.22 1023 10 16 0.00 0.00
1:53 am 01:53 Cloudy 42 5.6 33 0.6 71 71 Calm 30.22 1023 8 13 0.00 0.00
2:05 am 02:05 Cloudy 41 5 34 1.1 76 76 Calm 30.21 1023 9 14 0.00 0.00
2:14 am 02:14 Cloudy 42 5.6 34 1.1 73 73 Calm 30.21 1023 9 14 0.00 0.00
2:53 am 02:53 Cloudy 42 5.6 36 2.2 79 79 Calm 30.22 1023 10 16 0.00 0.00
3:53 am 03:53 Cloudy 42 5.6 36 2.2 79 79 NNE 3 6 30.23 1024 10 16 0.00 0.00
4:15 am 04:15 Cloudy 42 5.6 36 2.2 79 79 N 3 6 30.24 1024 9 14 0.00 0.00
4:53 am 04:53 Cloudy 42 5.6 36 2.2 79 79 NE 3 6 30.26 1025 10 16 0.00 0.00
5:53 am 05:53 Cloudy 43 6.1 37 2.8 80 80 NNE 5 7 30.27 1025 10 16 0.00 0.00
6:11 am 06:11 Cloudy 43 6.1 37 2.8 80 80 NNE 3 6 30.27 1025 10 16 0.00 0.00
6:53 am 06:53 Cloudy 43 6.1 37 2.8 80 80 E 5 7 30.29 1026 10 16 0.00 0.00
7:39 am 07:39 Cloudy 44 6.7 38 3.3 79 79 Calm 30.30 1026 9 14 0.00 0.00
7:46 am 07:46 Cloudy 44 6.7 38 3.3 79 79 E 3 6 30.30 1026 9 14 0.00 0.00
7:53 am 07:53 Cloudy 44 6.7 38 3.3 79 79 Calm 30.31 1026 9 14 0.00 0.00
8:53 am 08:53 Cloudy 45 7.2 39 3.9 80 80 ENE 7 11 30.30 1026 8 13 0.00 0.00
9:53 am 09:53 Cloudy 46 7.8 39 3.9 77 77 NE 8 13 30.32 1027 10 16 0.00 0.00
10:37 am 10:37 Cloudy 47 8.3 38 3.3 71 71 ENE 8 13 30.30 1026 10 16 0.00 0.00
10:53 am 10:53 Cloudy 47 8.3 38 3.3 71 71 ENE 9 15 30.30 1026 10 16 0.00 0.00
11:30 am 11:30 Cloudy 48 8.9 38 3.3 68 68 E 10 17 30.30 1026 10 16 0.00 0.00
11:53 am 11:53 Cloudy 49 9.4 39 3.9 69 69 E 12 19 30.27 1025 10 16 0.00 0.00
12:53 pm 12:53 Cloudy 49 9.4 40 4.4 71 71 ENE 6 9 30.24 1024 10 16 0.00 0.00
1:45 pm 13:45 Cloudy 49 9.4 42 5.6 77 77 E 9 15 30.21 1023 8 13 0.00 0.00
1:53 pm 13:53 Cloudy 48 8.9 41 5 77 77 E 7 11 30.22 1023 9 14 0.00 0.00
2:53 pm 14:53 Cloudy 49 9.4 42 5.6 77 77 E 7 11 30.20 1023 9 14 0.00 0.00
3:53 pm 15:53 Cloudy 48 8.9 43 6.1 83 83 ENE 6 9 30.20 1023 8 13 0.01 0.25
4:53 pm 16:53 Cloudy 48 8.9 43 6.1 83 83 NE 5 7 30.20 1023 8 13 0.00 0.00
5:50 pm 17:50 Cloudy 48 9 41 5 76 76 NE 5 7 30.18 1022 10 16 0.00 0.00
5:53 pm 17:53 Cloudy 48 8.9 41 5 77 77 ENE 5 7 30.19 1023 10 16 0.00 0.00
6:38 pm 18:38 Cloudy 47 8.3 41 5 80 80 NE 5 7 30.18 1022 10 16 0.00 0.00
6:53 pm 18:53 Cloudy 47 8.3 41 5 80 80 E 5 7 30.18 1022 10 16 0.00 0.00
7:19 pm 19:19 Cloudy with Rain 47 8.3 42 5.6 83 83 ESE 5 7 30.18 1022 4 6 0.01 0.25
7:53 pm 19:53 Cloudy 47 8.3 43 6.1 86 86 E 3 6 30.16 1022 8 13 0.01 0.25
8:53 pm 20:53 Mostly Cloudy with Light Rain 46 7.8 43 6.1 89 89 E 3 6 30.14 1021 7 11 0.01 0.25
9:51 pm 21:51 Cloudy with Light Rain 46 8 43 6 87 87 ENE 5 7 30.12 1020 3 4 0.01 0.25
9:53 pm 21:53 Cloudy with Light Rain 47 8.3 43 6.1 86 86 ENE 5 7 30.12 1020 3 5 0.01 0.25
10:53 pm 22:53 Cloudy with Light Rain 47 8.3 44 6.7 90 90 ENE 6 9 30.08 1019 4 6 0.02 0.51
11:13 pm 23:13 Cloudy with Nearby Thunderstorms 47 8.3 45 7.2 93 93 ENE 6 9 30.06 1018 4 6 0.00 0.03
11:28 pm 23:28 Cloudy with Mist and Fog 48 8.9 45 7.2 89 89 E 5 7 30.06 1018 4 6 0.01 0.25
11:53 pm 23:53 Cloudy with Light Rain 48 8.9 46 7.8 93 93 E 7 11 30.03 1017 3 5 0.02 0.51

Powered by AerisWeather